Location: Kosice
(48.7167°N, 21.2500°E)
Time: 01:57:08
(UTC+01:00)

ISS - Pass Details

Date: 26 January 2021
Orbit: 417 x 422 km, 51.6° (Epoch: 06 March)

Event Time Altitude Azimuth Distance (km) Brightness Sun altitude
Rises 18:47:14 0° 280° (W) 2,375 1.4 -23.5°
Reaches altitude 10° 18:49:23 10° 286° (WNW) 1,510 0.0 -23.9°
Enters shadow 18:51:32 33° 308° (NW) 737 -2.2 -24.3°
